ELY077 LFPB-EGBB

Flight info

Callsign ELY077
Flight time 1h 2m
Altitude 26000
Route OPALE DCT KESAX DCT DIMAL DCT ALESO T420 HEMEL
Aircraft A20N/M-SDE2E3FGHIRWXY/LB1

Departure

Time 2026-04-18 10:40
Airport Paris-Le Bourget International Airport (LFPB)

Arrival

Time 2026-04-18 11:43
Airport Birmingham Airport (EGBB)
Time Latitude Longitude Altitude Speed Heading
2026-04-18 09:48 48.95430 2.43604 153 ft 0 kts 118°
2026-04-18 10:18 48.95434 2.43592 153 ft 2 kts 111°
2026-04-18 10:18 48.95437 2.43572 152 ft 4 kts 110°
2026-04-18 10:19 48.95458 2.43564 152 ft 2 kts 206°
2026-04-18 10:19 48.95462 2.43567 152 ft 0 kts 207°
2026-04-18 10:26 48.95461 2.43565 152 ft 2 kts 207°
2026-04-18 10:26 48.95440 2.43540 152 ft 5 kts 234°
2026-04-18 10:26 48.95443 2.43511 154 ft 1 kts 299°
2026-04-18 10:27 48.95445 2.43508 154 ft 0 kts 308°
2026-04-18 10:27 48.95451 2.43499 155 ft 9 kts 317°
2026-04-18 10:27 48.95505 2.43502 155 ft 13 kts 23°
2026-04-18 10:28 48.95614 2.43576 155 ft 14 kts 29°
2026-04-18 10:28 48.95684 2.43629 155 ft 7 kts 26°
2026-04-18 10:28 48.95726 2.43659 156 ft 0 kts 24°
2026-04-18 10:29 48.95728 2.43661 156 ft 2 kts 24°
2026-04-18 10:30 48.95751 2.43676 156 ft 5 kts 24°
2026-04-18 10:30 48.95795 2.43707 157 ft 8 kts 25°
2026-04-18 10:30 48.95854 2.43749 158 ft 10 kts 25°
2026-04-18 10:30 48.95922 2.43797 160 ft 11 kts 25°
2026-04-18 10:31 48.95996 2.43848 163 ft 12 kts 24°
2026-04-18 10:31 48.96074 2.43902 165 ft 13 kts 24°
2026-04-18 10:31 48.96156 2.43961 168 ft 13 kts 27°
2026-04-18 10:31 48.96223 2.44064 169 ft 15 kts 65°
2026-04-18 10:32 48.96248 2.44224 171 ft 16 kts 79°
2026-04-18 10:32 48.96270 2.44381 172 ft 5 kts 77°
2026-04-18 10:32 48.96282 2.44440 172 ft 7 kts 62°
2026-04-18 10:32 48.96322 2.44497 173 ft 9 kts 40°
2026-04-18 10:33 48.96340 2.44610 171 ft 13 kts 97°
2026-04-18 10:33 48.96329 2.44758 172 ft 12 kts 92°
2026-04-18 10:33 48.96318 2.44785 171 ft 4 kts 138°
2026-04-18 10:33 48.96304 2.44784 171 ft 0 kts 189°
2026-04-18 10:34 48.96278 2.44770 171 ft 1 kts 190°
2026-04-18 10:34 48.96292 2.44782 171 ft 2 kts 263°
2026-04-18 10:34 48.96313 2.44671 171 ft 16 kts 294°
2026-04-18 10:34 48.96363 2.44604 171 ft 10 kts
2026-04-18 10:35 48.96412 2.44654 176 ft 7 kts 42°
2026-04-18 10:35 48.96439 2.44711 178 ft 7 kts 60°
2026-04-18 10:35 48.96462 2.44790 180 ft 10 kts 69°
2026-04-18 10:35 48.96477 2.44903 181 ft 12 kts 81°
2026-04-18 10:36 48.96503 2.45036 199 ft 14 kts 60°
2026-04-18 10:36 48.96586 2.45114 190 ft 15 kts
2026-04-18 10:36 48.96686 2.45087 203 ft 15 kts 347°
2026-04-18 10:36 48.96783 2.45054 196 ft 13 kts 347°
2026-04-18 10:37 48.96869 2.45026 210 ft 12 kts 348°
2026-04-18 10:37 48.96954 2.45004 206 ft 13 kts
2026-04-18 10:37 48.97016 2.45098 209 ft 14 kts 66°
2026-04-18 10:37 48.97050 2.45233 214 ft 13 kts 70°
2026-04-18 10:38 48.97086 2.45356 221 ft 13 kts 62°
2026-04-18 10:38 48.97118 2.45486 219 ft 14 kts 72°
2026-04-18 10:38 48.97151 2.45622 223 ft 14 kts 69°
2026-04-18 10:38 48.97194 2.45770 223 ft 17 kts 64°
2026-04-18 10:39 48.97282 2.45882 227 ft 17 kts 14°
2026-04-18 10:39 48.97372 2.45803 229 ft 17 kts 284°
2026-04-18 10:39 48.97346 2.45613 226 ft 25 kts 247°
2026-04-18 10:39 48.97174 2.44969 214 ft 105 kts 248°
2026-04-18 10:40 48.96805 2.43634 203 ft 167 kts 247°
2026-04-18 10:40 48.96393 2.41829 543 ft 186 kts 250°
2026-04-18 10:40 48.96079 2.39963 1244 ft 174 kts 245°
2026-04-18 10:40 48.95564 2.38376 1976 ft 169 kts 236°
2026-04-18 10:41 48.94932 2.36735 2593 ft 189 kts 237°
2026-04-18 10:41 48.94275 2.34842 3178 ft 214 kts 239°
2026-04-18 10:41 48.93608 2.32756 3853 ft 234 kts 244°
2026-04-18 10:41 48.93175 2.30205 4587 ft 258 kts 271°
2026-04-18 10:42 48.93669 2.27564 5509 ft 268 kts 301°
2026-04-18 10:42 48.94875 2.25385 6359 ft 270 kts 314°
2026-04-18 10:42 48.96219 2.23385 6748 ft 271 kts 315°
2026-04-18 10:42 48.97583 2.21397 6924 ft 271 kts 315°
2026-04-18 10:43 48.98939 2.19396 6991 ft 272 kts 317°
2026-04-18 10:43 49.00600 2.17945 6998 ft 283 kts 342°
2026-04-18 10:43 49.02553 2.17581 6999 ft 283 kts 356°
2026-04-18 10:43 49.04526 2.17480 6996 ft 282 kts 357°
2026-04-18 10:44 49.06497 2.17384 7083 ft 285 kts 357°
2026-04-18 10:44 49.08501 2.17282 7579 ft 290 kts 356°
2026-04-18 10:44 49.10511 2.17178 8752 ft 287 kts 355°
2026-04-18 10:44 49.12484 2.17068 9817 ft 291 kts 354°
2026-04-18 10:45 49.14535 2.16952 10673 ft 301 kts 354°
2026-04-18 10:45 49.16710 2.16829 11108 ft 325 kts 354°
2026-04-18 10:45 49.19045 2.16698 11586 ft 345 kts 354°
2026-04-18 10:45 49.21464 2.16570 12432 ft 350 kts 354°
2026-04-18 10:46 49.23919 2.16443 13318 ft 355 kts 354°
2026-04-18 10:46 49.26408 2.16311 14171 ft 360 kts 353°
2026-04-18 10:46 49.28932 2.16175 14964 ft 364 kts 353°
2026-04-18 10:46 49.31481 2.16035 15744 ft 369 kts 353°
2026-04-18 10:47 49.33879 2.15901 16466 ft 372 kts 353°
2026-04-18 10:47 49.36489 2.15756 17241 ft 377 kts 353°
2026-04-18 10:47 49.39123 2.15609 17981 ft 382 kts 353°
2026-04-18 10:47 49.41791 2.15399 18688 ft 384 kts 349°
2026-04-18 10:48 49.44417 2.14698 19345 ft 383 kts 340°
2026-04-18 10:48 49.46948 2.13467 20003 ft 381 kts 333°
2026-04-18 10:48 49.49410 2.12028 20634 ft 386 kts 334°
2026-04-18 10:48 49.51936 2.10576 21290 ft 390 kts 334°
2026-04-18 10:49 49.54494 2.09111 21915 ft 394 kts 333°
2026-04-18 10:49 49.57071 2.07634 22544 ft 398 kts 333°
2026-04-18 10:49 49.59588 2.06185 23143 ft 401 kts 333°
2026-04-18 10:49 49.62227 2.04663 23768 ft 405 kts 333°
2026-04-18 10:50 49.64889 2.03125 24288 ft 408 kts 333°
2026-04-18 10:50 49.67551 2.01586 24835 ft 411 kts 333°
2026-04-18 10:50 49.69881 2.00236 25279 ft 413 kts 332°
2026-04-18 10:50 49.72581 1.98670 25787 ft 416 kts 332°
2026-04-18 10:51 49.75305 1.97090 26115 ft 418 kts 332°
2026-04-18 10:51 49.78030 1.95507 26210 ft 418 kts 332°
2026-04-18 10:51 49.80759 1.93920 26217 ft 418 kts 332°
2026-04-18 10:51 49.83483 1.92333 26217 ft 418 kts 332°
2026-04-18 10:52 49.86205 1.90744 26219 ft 418 kts 332°
2026-04-18 10:52 49.88864 1.88956 26220 ft 412 kts 325°
2026-04-18 10:52 49.91289 1.86755 26220 ft 406 kts 319°
2026-04-18 10:52 49.93531 1.84152 26217 ft 401 kts 314°
2026-04-18 10:53 49.95715 1.81440 26278 ft 402 kts 314°
2026-04-18 10:53 49.97906 1.78753 26233 ft 400 kts 314°
2026-04-18 10:53 50.00065 1.76102 26228 ft 400 kts 314°
2026-04-18 10:53 50.02246 1.73416 26228 ft 401 kts 314°
2026-04-18 10:54 50.04427 1.70721 26228 ft 400 kts 314°
2026-04-18 10:54 50.06683 1.68126 26232 ft 406 kts 319°
2026-04-18 10:54 50.09154 1.65933 26227 ft 413 kts 326°
2026-04-18 10:54 50.11769 1.64046 26235 ft 414 kts 327°
2026-04-18 10:55 50.14381 1.62139 26242 ft 414 kts 326°
2026-04-18 10:55 50.16990 1.60225 26240 ft 414 kts 326°
2026-04-18 10:55 50.19592 1.58320 26260 ft 414 kts 326°
2026-04-18 10:55 50.22203 1.56415 26236 ft 413 kts 326°
2026-04-18 10:56 50.24805 1.54519 26237 ft 413 kts 326°
2026-04-18 10:56 50.27412 1.52620 26234 ft 413 kts 326°
2026-04-18 10:56 50.30018 1.50720 26232 ft 413 kts 326°
2026-04-18 10:56 50.31745 1.49460 26233 ft 413 kts 326°
2026-04-18 10:57 50.34352 1.47556 26232 ft 413 kts 326°
2026-04-18 10:57 50.36954 1.45653 26235 ft 413 kts 326°
2026-04-18 10:57 50.39551 1.43751 26245 ft 413 kts 326°
2026-04-18 10:57 50.42163 1.41836 26255 ft 413 kts 326°
2026-04-18 10:58 50.44721 1.39960 26238 ft 411 kts 326°
2026-04-18 10:58 50.47258 1.37942 26249 ft 406 kts 322°
2026-04-18 10:58 50.49585 1.35502 26240 ft 398 kts 315°
2026-04-18 10:58 50.51649 1.32675 26238 ft 391 kts 308°
2026-04-18 10:59 50.53504 1.29560 26240 ft 389 kts 306°
2026-04-18 10:59 50.55347 1.26439 26239 ft 389 kts 306°
2026-04-18 10:59 50.57190 1.23318 26240 ft 389 kts 306°
2026-04-18 10:59 50.59050 1.20214 26239 ft 391 kts 307°
2026-04-18 11:00 50.60967 1.17183 26237 ft 391 kts 308°
2026-04-18 11:00 50.62906 1.14166 26241 ft 392 kts 308°
2026-04-18 11:00 50.64813 1.11187 26277 ft 392 kts 308°
2026-04-18 11:00 50.66744 1.08146 26249 ft 393 kts 308°
2026-04-18 11:01 50.68676 1.05088 26247 ft 393 kts 308°
2026-04-18 11:01 50.70603 1.02026 26241 ft 393 kts 308°
2026-04-18 11:01 50.72517 0.98980 26241 ft 393 kts 308°
2026-04-18 11:02 50.76349 0.92801 26261 ft 393 kts 307°
2026-04-18 11:02 50.78278 0.89685 26241 ft 394 kts 307°
2026-04-18 11:02 50.80206 0.86589 26241 ft 394 kts 308°
2026-04-18 11:02 50.82135 0.83506 26241 ft 394 kts 308°
2026-04-18 11:03 50.84063 0.80425 26240 ft 394 kts 308°
2026-04-18 11:03 50.85992 0.77339 26241 ft 394 kts 308°
2026-04-18 11:03 50.87833 0.74388 26264 ft 394 kts 308°
2026-04-18 11:03 50.89847 0.71156 26207 ft 395 kts 308°
2026-04-18 11:04 50.91772 0.68053 26183 ft 395 kts 307°
2026-04-18 11:04 50.93669 0.64978 26157 ft 395 kts 307°
2026-04-18 11:04 50.95588 0.61871 26131 ft 395 kts 307°
2026-04-18 11:04 50.97511 0.58762 26104 ft 395 kts 307°
2026-04-18 11:05 50.99209 0.56023 26084 ft 395 kts 308°
2026-04-18 11:05 51.01136 0.52912 26053 ft 395 kts 308°
2026-04-18 11:05 51.03061 0.49799 26031 ft 395 kts 308°
2026-04-18 11:05 51.04984 0.46686 26023 ft 395 kts 307°
2026-04-18 11:06 51.06907 0.43568 25987 ft 394 kts 307°
2026-04-18 11:06 51.08856 0.40507 25968 ft 395 kts 309°
2026-04-18 11:06 51.10821 0.37536 25966 ft 396 kts 310°
2026-04-18 11:06 51.12830 0.34520 25966 ft 396 kts 309°
2026-04-18 11:07 51.14825 0.31510 25967 ft 396 kts 309°
2026-04-18 11:07 51.16817 0.28482 25966 ft 396 kts 309°
2026-04-18 11:07 51.18804 0.25448 25984 ft 395 kts 309°
2026-04-18 11:07 51.20786 0.22411 26005 ft 395 kts 309°
2026-04-18 11:08 51.22768 0.19367 26027 ft 396 kts 309°
2026-04-18 11:08 51.24751 0.16319 26054 ft 396 kts 309°
2026-04-18 11:08 51.26727 0.13278 26079 ft 395 kts 309°
2026-04-18 11:08 51.28705 0.10233 25952 ft 392 kts 309°
2026-04-18 11:09 51.30665 0.07211 25535 ft 390 kts 309°
2026-04-18 11:09 51.32669 0.04297 24976 ft 392 kts 314°
2026-04-18 11:09 51.34901 0.01754 24481 ft 395 kts 321°
2026-04-18 11:09 51.37269 -0.00474 23865 ft 394 kts 322°
2026-04-18 11:10 51.39622 -0.02694 23199 ft 390 kts 322°
2026-04-18 11:10 51.41946 -0.04900 22569 ft 386 kts 322°
2026-04-18 11:10 51.44229 -0.07071 22296 ft 380 kts 322°
2026-04-18 11:10 51.46517 -0.09256 22235 ft 385 kts 322°
2026-04-18 11:11 51.48825 -0.11459 22236 ft 385 kts 322°
2026-04-18 11:11 51.51128 -0.13655 22234 ft 385 kts 322°
2026-04-18 11:11 51.53405 -0.15828 22235 ft 385 kts 322°
2026-04-18 11:11 51.55628 -0.17950 22237 ft 385 kts 322°
2026-04-18 11:12 51.57930 -0.20151 22192 ft 385 kts 322°
2026-04-18 11:12 51.60196 -0.22320 22161 ft 385 kts 322°
2026-04-18 11:12 51.62464 -0.24495 22157 ft 385 kts 322°
2026-04-18 11:12 51.64764 -0.26702 22157 ft 385 kts 322°
2026-04-18 11:13 51.67063 -0.28911 22154 ft 385 kts 322°
2026-04-18 11:13 51.69222 -0.30988 22148 ft 384 kts 322°
2026-04-18 11:13 51.71515 -0.33195 21892 ft 382 kts 322°
2026-04-18 11:13 51.73788 -0.35386 21403 ft 379 kts 322°
2026-04-18 11:14 51.76044 -0.37559 20805 ft 377 kts 322°
2026-04-18 11:14 51.78289 -0.39709 20241 ft 374 kts 322°
2026-04-18 11:14 51.80519 -0.41850 19642 ft 371 kts 322°
2026-04-18 11:14 51.82725 -0.43978 19106 ft 367 kts 322°
2026-04-18 11:15 51.84906 -0.46091 18533 ft 364 kts 322°
2026-04-18 11:15 51.87070 -0.48197 17912 ft 361 kts 322°
2026-04-18 11:15 51.89216 -0.50289 17283 ft 358 kts 322°
2026-04-18 11:15 51.91341 -0.52364 16679 ft 355 kts 322°
2026-04-18 11:16 51.93445 -0.54423 16096 ft 352 kts 323°
2026-04-18 11:16 51.95539 -0.56475 15519 ft 350 kts 323°
2026-04-18 11:16 51.97613 -0.58510 14958 ft 347 kts 323°
2026-04-18 11:16 51.99652 -0.60508 14406 ft 345 kts 323°
2026-04-18 11:17 52.01697 -0.62513 13832 ft 343 kts 323°
2026-04-18 11:17 52.03727 -0.64504 13266 ft 339 kts 324°
2026-04-18 11:17 52.05716 -0.66459 12733 ft 335 kts 324°
2026-04-18 11:17 52.07703 -0.68417 12189 ft 332 kts 324°
2026-04-18 11:18 52.09633 -0.70318 11653 ft 330 kts 325°
2026-04-18 11:18 52.11592 -0.72251 11133 ft 327 kts 325°
2026-04-18 11:18 52.13528 -0.74161 10610 ft 324 kts 325°
2026-04-18 11:18 52.15448 -0.76056 10103 ft 322 kts 326°
2026-04-18 11:19 52.17347 -0.77930 9727 ft 314 kts 326°
2026-04-18 11:19 52.19169 -0.79726 9578 ft 299 kts 326°
2026-04-18 11:19 52.20906 -0.81440 9445 ft 285 kts 326°
2026-04-18 11:19 52.22574 -0.83087 9265 ft 274 kts 325°
2026-04-18 11:20 52.24095 -0.84877 8890 ft 267 kts 310°
2026-04-18 11:20 52.24968 -0.87131 8487 ft 262 kts 288°
2026-04-18 11:20 52.25407 -0.90040 8040 ft 261 kts 281°
2026-04-18 11:20 52.25793 -0.92927 7671 ft 258 kts 282°
2026-04-18 11:21 52.26177 -0.95771 7298 ft 256 kts 282°
2026-04-18 11:21 52.26559 -0.98572 7054 ft 252 kts 282°
2026-04-18 11:21 52.26948 -1.01406 6989 ft 258 kts 282°
2026-04-18 11:21 52.27341 -1.04279 6984 ft 257 kts 282°
2026-04-18 11:22 52.27728 -1.07098 6986 ft 260 kts 282°
2026-04-18 11:22 52.28121 -1.09971 6976 ft 257 kts 282°
2026-04-18 11:22 52.28507 -1.12799 6971 ft 253 kts 282°
2026-04-18 11:22 52.28889 -1.15598 6774 ft 252 kts 282°
2026-04-18 11:23 52.29273 -1.18423 6343 ft 256 kts 282°
2026-04-18 11:23 52.29657 -1.21255 6002 ft 254 kts 282°
2026-04-18 11:23 52.30034 -1.24051 5637 ft 251 kts 282°
2026-04-18 11:23 52.30412 -1.26847 5215 ft 251 kts 282°
2026-04-18 11:24 52.30786 -1.29623 4832 ft 250 kts 282°
2026-04-18 11:24 52.31156 -1.32380 4566 ft 245 kts 282°
2026-04-18 11:24 52.31520 -1.35094 4177 ft 244 kts 282°
2026-04-18 11:24 52.31868 -1.37814 3711 ft 246 kts 281°
2026-04-18 11:25 52.32202 -1.40525 3422 ft 242 kts 281°
2026-04-18 11:25 52.32530 -1.43223 3082 ft 240 kts 281°
2026-04-18 11:25 52.32849 -1.45848 2985 ft 242 kts 281°
2026-04-18 11:25 52.33183 -1.48564 2979 ft 242 kts 281°
2026-04-18 11:26 52.33515 -1.51258 2980 ft 240 kts 281°
2026-04-18 11:26 52.33846 -1.53951 3001 ft 243 kts 281°
2026-04-18 11:26 52.34182 -1.56689 2910 ft 241 kts 281°
2026-04-18 11:26 52.34506 -1.59335 2643 ft 239 kts 281°
2026-04-18 11:27 52.34883 -1.61975 2536 ft 243 kts 290°
2026-04-18 11:27 52.35862 -1.64236 2516 ft 248 kts 318°
2026-04-18 11:27 52.37271 -1.65820 2393 ft 246 kts 325°
2026-04-18 11:27 52.38683 -1.67366 2227 ft 243 kts 323°
2026-04-18 11:28 52.40088 -1.68914 2216 ft 239 kts 322°
2026-04-18 11:28 52.41421 -1.70388 2223 ft 224 kts 322°
2026-04-18 11:28 52.42788 -1.71907 2225 ft 259 kts 322°
2026-04-18 11:28 52.44291 -1.73505 2218 ft 251 kts 325°
2026-04-18 11:29 52.45771 -1.75127 2231 ft 278 kts 322°
2026-04-18 11:29 52.47452 -1.77073 2223 ft 303 kts 323°
2026-04-18 11:29 52.49164 -1.79025 2224 ft 285 kts 323°
2026-04-18 11:29 52.50749 -1.80804 2224 ft 266 kts 323°
2026-04-18 11:30 52.52232 -1.82454 2227 ft 249 kts 323°
2026-04-18 11:30 52.53636 -1.84005 2227 ft 245 kts 323°
2026-04-18 11:30 52.55071 -1.85537 2218 ft 245 kts 330°
2026-04-18 11:30 52.56741 -1.86143 2226 ft 252 kts 360°
2026-04-18 11:31 52.58425 -1.85307 2222 ft 259 kts 28°
2026-04-18 11:31 52.59694 -1.83191 2218 ft 266 kts 58°
2026-04-18 11:31 52.60202 -1.80260 2424 ft 274 kts 89°
2026-04-18 11:31 52.59760 -1.77219 3207 ft 277 kts 121°
2026-04-18 11:32 52.58533 -1.74875 4444 ft 274 kts 143°
2026-04-18 11:32 52.56978 -1.73017 5218 ft 278 kts 148°
2026-04-18 11:32 52.55411 -1.71211 5642 ft 279 kts 146°
2026-04-18 11:32 52.53878 -1.69244 5871 ft 281 kts 142°
2026-04-18 11:33 52.52399 -1.67137 6003 ft 282 kts 140°
2026-04-18 11:33 52.50951 -1.64938 6017 ft 283 kts 139°
2026-04-18 11:33 52.49527 -1.62716 6026 ft 281 kts 138°
2026-04-18 11:33 52.48116 -1.60494 6029 ft 282 kts 138°
2026-04-18 11:34 52.46711 -1.58298 6021 ft 281 kts 138°
2026-04-18 11:34 52.45314 -1.56124 6013 ft 280 kts 138°
2026-04-18 11:34 52.43901 -1.53921 5764 ft 280 kts 138°
2026-04-18 11:34 52.42502 -1.51739 5418 ft 279 kts 138°
2026-04-18 11:35 52.41101 -1.49553 5049 ft 278 kts 138°
2026-04-18 11:35 52.39708 -1.47378 4762 ft 272 kts 139°
2026-04-18 11:35 52.38366 -1.45280 4605 ft 261 kts 139°
2026-04-18 11:35 52.37077 -1.43278 4496 ft 250 kts 141°
2026-04-18 11:36 52.35633 -1.42016 4399 ft 232 kts 173°
2026-04-18 11:36 52.34127 -1.42160 4263 ft 207 kts 206°
2026-04-18 11:36 52.33037 -1.43499 3713 ft 194 kts 241°
2026-04-18 11:36 52.32684 -1.45562 3119 ft 191 kts 274°
2026-04-18 11:37 52.32978 -1.47663 2565 ft 187 kts 287°
2026-04-18 11:37 52.33318 -1.49678 2130 ft 186 kts 284°
2026-04-18 11:37 52.33605 -1.51790 2173 ft 189 kts 280°
2026-04-18 11:37 52.33855 -1.53884 2226 ft 190 kts 281°
2026-04-18 11:38 52.34110 -1.56028 2273 ft 192 kts 281°
2026-04-18 11:38 52.34366 -1.58153 2289 ft 190 kts 281°
2026-04-18 11:38 52.34534 -1.59541 2321 ft 186 kts 281°
2026-04-18 11:38 52.34791 -1.61625 2309 ft 186 kts 281°
2026-04-18 11:39 52.35319 -1.63503 2078 ft 179 kts 309°
2026-04-18 11:39 52.36251 -1.64642 2015 ft 156 kts 323°
2026-04-18 11:39 52.37076 -1.65559 2013 ft 133 kts 320°
2026-04-18 11:39 52.37837 -1.66414 1996 ft 135 kts 320°
2026-04-18 11:40 52.38607 -1.67264 1796 ft 131 kts 320°
2026-04-18 11:40 52.39373 -1.68118 1631 ft 133 kts 321°
2026-04-18 11:40 52.40129 -1.68955 1456 ft 129 kts 320°
2026-04-18 11:40 52.40880 -1.69792 1282 ft 132 kts 321°
2026-04-18 11:41 52.41653 -1.70647 1087 ft 134 kts 320°
2026-04-18 11:41 52.42449 -1.71473 855 ft 135 kts 321°
2026-04-18 11:41 52.43179 -1.72282 700 ft 122 kts 316°
2026-04-18 11:41 52.43886 -1.73135 549 ft 126 kts 322°
2026-04-18 11:42 52.44610 -1.73867 383 ft 119 kts 321°
2026-04-18 11:42 52.45257 -1.74646 324 ft 100 kts 325°
2026-04-18 11:42 52.45561 -1.74979 324 ft 65 kts 323°
2026-04-18 11:42 52.45924 -1.75405 321 ft 59 kts 326°
2026-04-18 11:43 52.46163 -1.75551 317 ft 12 kts 41°
2026-04-18 11:43 52.46189 -1.75361 317 ft 3 kts 133°
2026-04-18 11:43 52.46138 -1.75303 319 ft 14 kts 144°
2026-04-18 11:43 52.46037 -1.75194 320 ft 20 kts 147°
2026-04-18 11:44 52.45907 -1.75056 321 ft 24 kts 146°
2026-04-18 11:44 52.45752 -1.74886 323 ft 29 kts 147°
2026-04-18 11:44 52.45574 -1.74692 325 ft 33 kts 146°
2026-04-18 11:44 52.45437 -1.74464 325 ft 7 kts 117°
2026-04-18 11:45 52.45404 -1.74362 327 ft 14 kts 116°
2026-04-18 11:45 52.45356 -1.74187 328 ft 20 kts 115°
2026-04-18 11:45 52.45333 -1.74110 325 ft 2 kts 117°
2026-04-18 11:45 52.45316 -1.74058 327 ft 8 kts 119°
2026-04-18 11:46 52.45262 -1.73964 330 ft 15 kts 141°
2026-04-18 11:46 52.45170 -1.73858 328 ft 15 kts 145°
2026-04-18 11:46 52.45143 -1.73827 327 ft 4 kts 145°
2026-04-18 11:46 52.45111 -1.73710 329 ft 15 kts 63°
2026-04-18 11:47 52.45140 -1.73622 328 ft 3 kts 63°
2026-04-18 11:47 52.45182 -1.73529 332 ft 15 kts 32°
2026-04-18 11:47 52.45272 -1.73529 327 ft 0 kts 335°